カタログに戻る

STARLINK-36215

運用中通信VLEO
NORAD 67100·PAYLOAD·🇺🇸 United States

打ち上げ Dec 14, 2025 から Vandenberg Space Force Base

Loading…

次のパス (今後24時間)

TLE

最新Source: CelesTrak SupGP

元期: Sep 14, 2026, 20:53 UTC

1 67100C 25298AB  26257.87062500  .00070254  00000+0  58870-2 0  2574
2 67100  69.9998 257.4557 0003574 267.2647 136.1449 14.98297744    18

AllMySatでSTARLINK-36215をリアルタイム追跡

Download on the App Store